Location: Unspecified
(50.7693°N, 0.0000°E)
Time: 05:48:26
(UTC+00:00)

Transit 2A - Pass Details

Date: 14 August 2020
Orbit: 591 x 967 km, 66.7° (Epoch: 20 September)

Event Time Altitude Azimuth Distance (km) Brightness Sun altitude
Rises 23:42:13 0° 303° (WNW) 3,621 10.0 -25.1°
Reaches altitude 10° 23:45:37 10° 321° (NW) 2,703 9.5 -25.1°
Maximum altitude 23:50:01 19° 5° (N) 2,134 9.1 -25.2°
Drops below altitude 10° 23:54:25 10° 49° (NE) 2,704 9.3 -25.2°
Sets 23:57:49 0° 66° (ENE) 3,622 9.8 -25.2°
